Location: McFarlands Corners
(41.4117°N, 81.3382°W)
Time: 10:30:24
(UTC+00:00)

Courier 1B Rocket - Pass Details

Date: 16 February 2026
Orbit: 920 x 1201 km, 28.2° (Epoch: 10 March)

Event Time Altitude Azimuth Distance (km) Brightness Sun altitude
Rises 00:18:26 0° 208° (SSW) 3,546 8.4 -15.4°
Reaches altitude 10° 00:22:44 10° 180° (S) 2,632 7.3 -16.2°
Maximum altitude 00:25:15 13° 157° (SSE) 2,475 6.9 -16.7°
Enters shadow 00:27:16 11° 138° (SE) 2,612 6.9 -17.1°
Drops below altitude 10° 00:27:48 10° 133° (SE) 2,685 - -17.2°
Sets 00:32:18 0° 106° (ESE) 3,695 - -18.0°
